Location: Newark
(35.7219°N, 0.3536°E)
Time: 07:53:54
(UTC+00:00)

ISS - Pass Details

Date: 26 July 2019
Orbit: 410 x 421 km, 51.6° (Epoch: 24 August)

Event Time Altitude Azimuth Distance (km) Brightness Sun altitude
Rises 22:16:35 0° 327° (NNW) 2,368 1.3 -29.2°
Reaches altitude 10° 22:20:21 10° 10° (N) 1,497 -0.4 -29.6°
Enters shadow 22:20:29 10° 12° (NNE) 1,488 -0.4 -29.6°
